Flag for Norway Weather past 2 weeks in Jan Mayen, Jan Mayen, Norway

Now
34 °F

Chilly.


Feels Like: 24 °F
Forecast: 34 / 37 °F
Wind: 13 mph from North

Location: Jan Mayen

Current Time: Jun 2, 2015 at 3:44:36 AM

Latest Report: Jun 2, 2015 at 3:00 AM


Visibility: N/A

Pressure: 29.59 "Hg

Humidity: 92%

Dew point: 32 °F

Location of Jan MayenLocation

Historic Weather in Jan Mayen — Graph

°F

Jan Mayen temperature yesterday

Maximum temperature yesterday: 37 °F (at 2:00 PM)
Minimum temperature yesterday: 32 °F (at 4:00 AM)
Average temperature yesterday: 34 °F

Past Weeks' High & Low Weather Summary

 TemperatureHumidityPressure
High43 °F (May 18, 5:00 PM)95% (May 21, 3:00 AM)30.01 "Hg (May 21, 3:00 AM)
Low25 °F (May 23, 4:00 AM)67% (Jun 1, 2:00 PM)29.61 "Hg (Jun 2, 2:00 AM)
Average36 °F85%29.84 "Hg
* Reported May 18 2:00 AM — Jun 2 2:00 AM, Jan Mayen, Weather by CustomWeather, © 2015

Note: Actual official high and low records may vary slightly from our data, if they occured in-between our weather recording intervals... More about our weather records

Advertising

Jan Mayen weather history for previous 24 hours

 ConditionsComfort  
Time TempWeatherWind HumidityBarometerVisibility
2:00 AM
Tue, Jun 2
33 °FLow clouds.16 mph93%29.61 "Hg4 mi
1:00 AM33 °FChilly.17 mph92%29.61 "HgN/A
12:00 AM33 °FChilly.17 mph92%29.61 "HgN/A
10:00 PM
Mon, Jun 1
33 °FChilly.20 mph91%29.64 "HgN/A
9:00 PM33 °FChilly.20 mph90%29.65 "HgN/A
8:00 PM33 °FSnow flurries. Overcast.18 mph89%29.65 "Hg6 mi
7:00 PM33 °FChilly.16 mph87%29.72 "HgN/A
6:00 PM35 °FChilly.18 mph77%29.71 "HgN/A
5:00 PM35 °FOvercast.18 mph79%29.74 "Hg9 mi
4:00 PM36 °FChilly.10 mph77%29.77 "HgN/A
3:00 PM36 °FChilly.16 mph81%29.72 "HgN/A
2:00 PM37 °FOvercast.6 mph67%29.80 "Hg6 mi
1:00 PM35 °FChilly.12 mph87%29.79 "HgN/A
12:00 PM34 °FChilly.13 mph90%29.81 "HgN/A
11:00 AM33 °FLow clouds.12 mph89%29.83 "Hg7 mi
10:00 AM34 °FChilly.15 mph87%29.85 "HgN/A
9:00 AM34 °FChilly.15 mph87%29.87 "HgN/A
8:00 AM33 °FOvercast.14 mph88%29.87 "Hg7 mi
7:00 AM33 °FChilly.13 mph86%29.88 "HgN/A
6:00 AM33 °FChilly.14 mph84%29.90 "HgN/A
4:00 AM32 °FChilly.16 mph86%29.90 "HgN/A
3:00 AM34 °FChilly.10 mph82%29.92 "HgN/A
Weather by CustomWeather, © 2015

See weather overviewHow to use our weather pages